[[{"header":{"parameterUnit":"m.s-1","parameterCategory":1,"la1":30.2991,"la2":30.254,"lo1":-89.0895,"lo2":-89.0444,"dy":0.0017,"dx":0.0017,"nx":28,"ny":28,"refTime":"2025-01-11T03:00:00:Z","depth":0,"parameterNumber":2,"parameterNumberName":"U-component_of_WINDS"},"data":[0,0,0,0,0,0,0,0,0,0,0,0,0,0,0,0,0,0,0,0,0,0,0,0,0,0,0,0,0,0,0,0,0,0,0,0,0,0,0,0,0,0,0,0,0,0,0,0,0,0,0,0,0,0,0,0,0,0,-0.9263,-0.9264,0,-0.934,-0.9341,-0.9342,-0.9363,-0.9363,-0.9362,-0.9362,-0.9441,-0.9443,-0.9446,0,0,0,0,0,0,0,0,0,0,0,0,0,-0.9134,-0.9137,-0.9263,-0.9264,-0.9265,-0.934,-0.9341,-0.9342,-0.9363,-0.9363,-0.9362,-0.9362,-0.944,-0.9443,-0.9446,0,0,0,0,0,0,0,0,0,0,0,0,0,-0.9199,-0.9137,-0.9263,-0.9285,-0.9288,-0.934,-0.9341,-0.9343,-0.9363,-0.9363,-0.9362,-0.9361,-0.9439,-0.9443,-0.9446,-0.9483,0,0,-0.9458,-0.946,0,0,0,0,0,0,0,0,-0.9195,-0.9203,-0.9281,-0.9283,-0.9287,-0.9341,-0.9325,-0.939,-0.9364,-0.9335,-0.9362,-0.9361,-0.9408,-0.9415,-0.9431,-0.9487,-0.949,-0.9458,-0.9461,-0.9462,-0.9463,0,0,0,0,0,0,0,-0.919,-0.92,-0.9294,-0.9282,-0.9285,-0.929,-0.9299,-0.9337,-0.9374,-0.9337,-0.9339,-0.9348,-0.941,-0.9427,-0.9433,-0.9491,-0.9458,-0.9462,-0.9464,-0.9465,-0.958,-0.9581,0,0,0,0,0,0,-0.9182,-0.9196,-0.9291,-0.9296,-0.9238,-0.9293,-0.9303,-0.9325,-0.9374,-0.9381,-0.9348,-0.9348,-0.9421,-0.9428,-0.9435,-0.9481,-0.9462,-0.9466,-0.9468,-0.9579,-0.958,-0.9581,0,0,0,0,0,0,-0.9179,-0.9191,-0.9288,-0.9247,-0.926,-0.9296,-0.9321,-0.9326,-0.9343,-0.9382,-0.9389,-0.9359,-0.942,-0.943,-0.9471,-0.9484,-0.9467,-0.9471,-0.9578,-0.958,-0.9581,-0.9572,0,0,0,0,0,0,-0.9176,-0.9189,-0.9204,-0.9247,-0.9262,-0.9323,-0.9321,-0.9328,-0.935,-0.9351,-0.9394,-0.94,-0.9421,-0.9465,-0.9474,-0.9489,-0.9474,-0.9577,-0.9579,-0.958,-0.9572,-0.9573,-0.9574,0,0,0,0,0,-0.9171,-0.9199,-0.9205,-0.9216,-0.9281,-0.9323,-0.9332,-0.9354,-0.9351,-0.9366,-0.939,-0.9399,-0.9481,-0.9469,-0.948,-0.9496,-0.9577,-0.9579,-0.958,-0.9571,-0.9573,-0.9574,0,0,0,0,0,0,-0.9157,-0.9205,-0.9212,-0.9255,-0.9285,-0.9327,-0.9346,-0.9356,-0.9388,-0.9387,-0.9414,-0.9424,-0.9462,-0.9483,-0.9469,-0.9533,-0.9529,-0.9533,-0.9518,-0.952,-0.9522,-0.9516,-0.9477,0,0,0,0,0,-0.9159,-0.919,-0.923,-0.9264,-0.9278,-0.9309,-0.9329,-0.9344,-0.9376,-0.9389,-0.9417,-0.9448,-0.948,-0.9501,-0.9534,-0.9574,-0.9584,-0.959,-0.9592,-0.9593,-0.9596,-0.9618,-0.9622,-0.9587,-0.9587,-0.9587,0,0,-0.9163,-0.9193,-0.9211,-0.9262,-0.9287,-0.9318,-0.932,-0.9353,-0.9376,-0.9394,-0.9434,-0.9455,-0.9492,-0.9532,-0.9552,-0.9551,-0.9608,-0.9595,-0.9595,-0.9598,-0.9621,-0.9624,-0.9627,-0.9588,-0.9588,-0.9588,0,0,-0.9187,-0.9213,-0.9244,-0.9268,-0.9306,-0.9326,-0.9333,-0.9374,-0.9389,-0.9429,-0.9443,-0.947,-0.9526,-0.9551,-0.9571,-0.9602,-0.9612,-0.9612,-0.962,-0.9641,-0.9644,-0.9646,-0.9657,-0.9661,-0.9615,-0.9615,-0.9615,0,-0.9188,-0.9235,-0.9258,-0.929,-0.9312,-0.9328,-0.9359,-0.9382,-0.9428,-0.9443,-0.9441,-0.951,-0.9536,-0.9582,-0.959,-0.9605,-0.9614,-0.9608,-0.9642,-0.9644,-0.9647,-0.9658,-0.9662,-0.9615,-0.9615,-0.9615,-0.9615,0,-0.9234,-0.9267,-0.9287,-0.933,-0.9354,-0.9385,-0.9412,-0.9433,-0.9446,-0.9466,-0.9506,-0.9537,-0.9576,-0.9588,-0.96,-0.9636,-0.9634,-0.9636,-0.9633,-0.965,-0.966,-0.9665,-0.9615,-0.9615,-0.9615,-0.9615,0,0,-0.9253,-0.9307,-0.9315,-0.9334,-0.9376,-0.9401,-0.9433,-0.947,-0.9487,-0.9518,-0.9545,-0.9591,-0.9593,-0.9616,-0.9631,-0.965,-0.9672,-0.965,-0.9652,-0.9653,-0.9713,-0.971,-0.9715,-0.9678,-0.9679,-0.968,-0.9709,0,-0.9282,-0.9339,-0.936,-0.9406,-0.9436,-0.9452,-0.9479,-0.9507,-0.9527,-0.9555,-0.9576,-0.9608,-0.9609,-0.9623,-0.9642,-0.9665,-0.9684,-0.9664,-0.9703,-0.9704,-0.9694,-0.972,-0.9719,-0.9745,-0.9714,-0.9714,-0.9715,0,-0.9324,-0.9355,-0.9404,-0.9441,-0.9454,-0.9479,-0.9514,-0.954,-0.9572,-0.9585,-0.9609,-0.9623,-0.9656,-0.965,-0.9696,-0.9681,-0.9698,-0.9712,-0.9713,-0.9718,-0.9711,-0.9726,-0.9755,-0.9758,-0.9722,-0.9721,-0.9721,0,-0.9332,-0.9386,-0.9422,-0.9439,-0.9483,-0.9499,-0.9518,-0.955,-0.957,-0.9601,-0.9614,-0.9648,-0.9667,-0.9693,-0.9715,-0.9708,-0.9758,-0.9754,-0.977,-0.9769,-0.978,-0.9779,-0.9812,-0.9791,-0.9791,-0.9791,-0.979,0,-0.9363,-0.9393,-0.9427,-0.9449,-0.9482,-0.9505,-0.9538,-0.9558,-0.9585,-0.9611,-0.9627,-0.9651,-0.9679,-0.9706,-0.9724,-0.9759,-0.9767,-0.9778,-0.9782,-0.9777,-0.9775,-0.9789,-0.9788,-0.9792,-0.9791,-0.9791,-0.9791,0,-0.9378,-0.9402,-0.9443,-0.9481,-0.9491,-0.9514,-0.9546,-0.9568,-0.9588,-0.9621,-0.963,-0.966,-0.9694,-0.9718,-0.9761,-0.9773,-0.981,-0.9814,-0.9799,-0.9801,-0.9816,-0.9814,-0.9858,-0.9865,-0.9839,-0.9839,-0.9839,0,-0.9397,-0.942,-0.946,-0.9478,-0.9497,-0.9527,-0.9547,-0.957,-0.9591,-0.9629,-0.9646,-0.968,-0.9709,-0.9761,-0.9787,-0.982,-0.9826,-0.9839,-0.9831,-0.9824,-0.9826,-0.9824,-0.9826,-0.984,-0.984,-0.984,-0.984,0,-0.9426,-0.9436,-0.9466,-0.9499,-0.9523,-0.955,-0.9578,-0.9592,-0.9619,-0.9642,-0.9676,-0.9698,-0.9741,-0.9775,-0.981,-0.983,-0.984,-0.9842,-0.9848,-0.9843,-0.9833,-0.9838,-0.9802,-0.9842,-0.9842,-0.9841,-0.9841,-0.9841,-0.9444,-0.9464,-0.9495,-0.9527,-0.955,-0.9575,-0.9597,-0.9619,-0.9647,-0.9684,-0.9696,-0.9731,-0.9761,-0.9809,-0.9829,-0.9857,-0.9856,-0.9864,-0.9866,-0.9868,-0.9867,-0.9828,-0.9863,-0.9863,-0.9863,-0.9863,-0.9863,0,-0.9474,-0.9494,-0.9523,-0.956,-0.9585,-0.9591,-0.9622,-0.9642,-0.9672,-0.97,-0.9727,-0.9766,-0.9798,-0.9826,-0.9859,-0.9876,-0.9881,-0.9884,-0.9883,-0.9887,-0.9866,-0.9858,-0.9879,-0.9879,-0.9879,-0.9879,-0.9879,-0.9879,-0.9493,-0.9528,-0.9541,-0.9588,-0.9608,-0.9642,-0.9659,-0.9681,-0.9703,-0.9745,-0.9772,-0.979,-0.9817,-0.9852,-0.9882,-0.9889,-0.9901,-0.9903,-0.9911,-0.9891,-0.9889,-0.9887,-0.988,-0.9905,-0.9905,-0.993,-0.993,-0.993]},{"header":{"parameterUnit":"m.s-1","parameterCategory":1,"la1":30.2991,"la2":30.254,"lo1":-89.0895,"lo2":-89.0444,"dy":0.0017,"dx":0.0017,"nx":28,"ny":28,"refTime":"2025-01-11T03:00:00:Z","depth":0,"parameterNumber":3,"parameterNumberName":"V-component_of_WINDS"},"data":[0,0,0,0,0,0,0,0,0,0,0,0,0,0,0,0,0,0,0,0,0,0,0,0,0,0,0,0,0,0,0,0,0,0,0,0,0,0,0,0,0,0,0,0,0,0,0,0,0,0,0,0,0,0,0,0,0,0,-0.9935,-0.9936,0,-0.9969,-0.9969,-0.997,-0.9972,-0.9972,-0.9972,-0.9971,-1.0006,-1.0007,-1.0008,0,0,0,0,0,0,0,0,0,0,0,0,0,-0.9874,-0.9875,-0.9935,-0.9936,-0.9936,-0.9969,-0.9969,-0.997,-0.9972,-0.9972,-0.9971,-0.9971,-1.0005,-1.0007,-1.0008,0,0,0,0,0,0,0,0,0,0,0,0,0,-0.9903,-0.9875,-0.9935,-0.9941,-0.9942,-0.9969,-0.9969,-0.997,-0.9972,-0.9972,-0.9971,-0.9971,-1.0005,-1.0007,-1.0009,-1.0031,0,0,-1.0014,-1.0015,0,0,0,0,0,0,0,0,-0.9902,-0.9906,-0.994,-0.9941,-0.9942,-0.9966,-0.996,-0.9991,-0.9973,-0.9961,-0.9971,-0.9971,-0.9993,-0.9996,-1.0003,-1.0033,-1.0035,-1.0015,-1.0016,-1.0017,-1.0017,0,0,0,0,0,0,0,-0.99,-0.9904,-0.9949,-0.9941,-0.9942,-0.9943,-0.9946,-0.9966,-0.998,-0.9962,-0.9962,-0.9966,-0.9993,-1.0002,-1.0004,-1.0035,-1.0015,-1.0016,-1.0017,-1.0018,-1.0086,-1.0086,0,0,0,0,0,0,-0.9896,-0.9902,-0.9948,-0.995,-0.992,-0.9944,-0.9948,-0.9959,-0.9979,-0.9982,-0.9967,-0.9966,-0.9999,-1.0002,-1.0005,-1.0034,-1.0017,-1.0018,-1.0019,-1.0085,-1.0086,-1.0087,0,0,0,0,0,0,-0.9895,-0.99,-0.9946,-0.9926,-0.9932,-0.9946,-0.9958,-0.996,-0.9968,-0.9983,-0.9985,-0.9972,-0.9998,-1.0003,-1.0025,-1.0035,-1.0019,-1.0021,-1.0084,-1.0085,-1.0086,-1.009,0,0,0,0,0,0,-0.9893,-0.99,-0.9908,-0.9926,-0.9933,-0.9965,-0.9958,-0.9961,-0.9971,-0.9971,-0.9989,-0.9991,-0.9998,-1.0022,-1.0027,-1.0037,-1.0022,-1.0084,-1.0085,-1.0086,-1.0089,-1.0091,-1.0093,0,0,0,0,0,-0.9891,-0.9908,-0.9909,-0.9914,-0.9944,-0.9966,-0.9969,-0.9977,-0.9972,-0.9981,-0.9991,-0.9991,-1.0033,-1.0024,-1.003,-1.0041,-1.0083,-1.0084,-1.0086,-1.0088,-1.0091,-1.0093,0,0,0,0,0,0,-0.9891,-0.991,-0.9912,-0.9935,-0.9949,-0.9966,-0.9977,-0.9979,-0.9994,-0.9993,-1.0002,-1.0006,-1.0028,-1.0037,-1.0027,-1.0064,-1.0058,-1.006,-1.0057,-1.006,-1.0062,-1.0059,-1.0024,0,0,0,0,0,-0.9893,-0.9909,-0.9926,-0.9945,-0.9951,-0.9963,-0.9973,-0.9977,-0.9992,-0.9998,-1.0009,-1.0023,-1.004,-1.005,-1.0066,-1.0091,-1.0095,-1.0101,-1.0103,-1.0104,-1.0106,-1.012,-1.0123,-1.0091,-1.0091,-1.0091,0,0,-0.9899,-0.9912,-0.9921,-0.9945,-0.9956,-0.9972,-0.9968,-0.9985,-0.9997,-1.0,-1.0022,-1.0031,-1.0048,-1.0071,-1.0082,-1.0079,-1.0116,-1.0106,-1.0107,-1.0108,-1.0122,-1.0124,-1.0127,-1.0092,-1.0092,-1.0092,0,0,-0.9917,-0.9929,-0.9946,-0.9957,-0.9974,-0.9982,-0.9986,-1.0004,-1.001,-1.0032,-1.0034,-1.0049,-1.0077,-1.0089,-1.0099,-1.0123,-1.0124,-1.0128,-1.0137,-1.015,-1.0153,-1.0155,-1.0163,-1.0166,-1.013,-1.013,-1.013,0,-0.9922,-0.9946,-0.9954,-0.9972,-0.9982,-0.9986,-1.0003,-1.0014,-1.0035,-1.0043,-1.0039,-1.0075,-1.0087,-1.0113,-1.0119,-1.0126,-1.0132,-1.0125,-1.0152,-1.0154,-1.0156,-1.0164,-1.0167,-1.013,-1.013,-1.013,-1.013,0,-0.9951,-0.9968,-0.998,-1.0001,-1.0013,-1.003,-1.0041,-1.0052,-1.0056,-1.0064,-1.0087,-1.0101,-1.012,-1.0127,-1.013,-1.0154,-1.0151,-1.015,-1.0143,-1.0159,-1.0167,-1.017,-1.0131,-1.0131,-1.013,-1.013,0,0,-0.9969,-0.9995,-0.9999,-1.0008,-1.0028,-1.0041,-1.0059,-1.0078,-1.0087,-1.0102,-1.0118,-1.0142,-1.0141,-1.0152,-1.0157,-1.0169,-1.0187,-1.0166,-1.0166,-1.0169,-1.0213,-1.0214,-1.0218,-1.0188,-1.0189,-1.0189,-1.0212,0,-0.9989,-1.0021,-1.0029,-1.0056,-1.0072,-1.0076,-1.0092,-1.0105,-1.0114,-1.0129,-1.0139,-1.0156,-1.0153,-1.016,-1.0171,-1.0182,-1.0196,-1.0181,-1.0202,-1.0203,-1.0197,-1.0222,-1.0222,-1.0243,-1.0215,-1.0216,-1.0216,0,-1.0017,-1.0032,-1.0061,-1.0079,-1.0086,-1.01,-1.0118,-1.0132,-1.0148,-1.0154,-1.0166,-1.0171,-1.019,-1.0183,-1.021,-1.0199,-1.0209,-1.0215,-1.0216,-1.0218,-1.021,-1.0224,-1.025,-1.0253,-1.0221,-1.022,-1.022,0,-1.0027,-1.0055,-1.0076,-1.0084,-1.0105,-1.0115,-1.0124,-1.014,-1.0151,-1.0167,-1.0174,-1.0192,-1.0202,-1.0216,-1.0226,-1.022,-1.0252,-1.0246,-1.0257,-1.0257,-1.0263,-1.0262,-1.0291,-1.027,-1.027,-1.027,-1.027,0,-1.0048,-1.0065,-1.008,-1.0093,-1.0113,-1.0122,-1.0141,-1.0151,-1.0165,-1.018,-1.0185,-1.0199,-1.0211,-1.0227,-1.0235,-1.0256,-1.026,-1.0265,-1.0267,-1.0264,-1.0264,-1.027,-1.0269,-1.0271,-1.027,-1.027,-1.027,0,-1.0061,-1.0073,-1.0095,-1.0114,-1.012,-1.0133,-1.0149,-1.0162,-1.0171,-1.019,-1.0195,-1.021,-1.0229,-1.024,-1.0264,-1.0269,-1.0292,-1.0293,-1.0286,-1.0287,-1.0298,-1.0296,-1.0331,-1.0336,-1.0312,-1.0312,-1.0313,0,-1.0074,-1.0087,-1.0108,-1.0118,-1.0128,-1.0144,-1.0156,-1.0166,-1.0178,-1.0198,-1.0208,-1.0227,-1.0243,-1.0273,-1.0286,-1.0305,-1.0306,-1.0317,-1.0309,-1.0306,-1.0306,-1.0305,-1.0306,-1.0318,-1.0318,-1.0318,-1.0319,0,-1.0095,-1.01,-1.0116,-1.0134,-1.0147,-1.0162,-1.0177,-1.0185,-1.0198,-1.0211,-1.0231,-1.0243,-1.0268,-1.0287,-1.0307,-1.0317,-1.032,-1.0321,-1.0325,-1.0322,-1.0317,-1.032,-1.029,-1.032,-1.032,-1.032,-1.032,-1.032,-1.0108,-1.012,-1.0137,-1.0155,-1.0167,-1.0181,-1.0194,-1.0205,-1.0221,-1.0242,-1.0247,-1.0268,-1.0284,-1.0311,-1.0322,-1.0339,-1.0337,-1.0342,-1.0343,-1.0344,-1.0344,-1.0315,-1.0342,-1.0342,-1.0342,-1.0342,-1.0342,0,-1.0129,-1.014,-1.0156,-1.0177,-1.0191,-1.0193,-1.021,-1.0222,-1.024,-1.0255,-1.0271,-1.0293,-1.0312,-1.0327,-1.0347,-1.0357,-1.0359,-1.0362,-1.0361,-1.0363,-1.0345,-1.034,-1.036,-1.036,-1.036,-1.036,-1.036,-1.036,-1.0141,-1.0162,-1.0169,-1.0197,-1.0208,-1.0228,-1.0237,-1.025,-1.0262,-1.0287,-1.0303,-1.0313,-1.0328,-1.0349,-1.0366,-1.037,-1.0377,-1.038,-1.0384,-1.0366,-1.0364,-1.0362,-1.0358,-1.0381,-1.0381,-1.04,-1.0401,-1.0401]}]]